Location: Great Falls
(47.5000°N, 111.3000°W)
Time: 09:17:42
(UTC-06:00)

OTV 5 (USA 277) - Visible Passes

Search period start: 19 April 2019 00:00
Search period end: 29 April 2019 00:00
Orbit: 310 x 325 km, 54.5° (Epoch: 16 April)

Date Brightness Start Highest point End Pass type
(mag) Time Alt. Az. Time Alt. Az. Time Alt. Az.
19 Apr ? 03:37:43 18° NNE 03:37:43 18° NNE 03:39:09 10° ENE visible
19 Apr ? 05:09:11 10° NW 05:11:50 56° NNE 05:14:28 10° ESE visible
20 Apr ? 03:52:16 25° NNE 03:52:16 25° NNE 03:54:23 10° ENE visible
20 Apr ? 05:23:56 10° WNW 05:26:36 60° SW 05:29:13 10° SE visible
21 Apr ? 04:07:10 39° NE 04:07:10 39° NE 04:09:33 10° E visible
21 Apr ? 05:38:58 10° W 05:41:13 24° SW 05:43:27 10° SSE visible
22 Apr ? 04:22:41 39° ESE 04:22:41 39° ESE 04:24:30 10° ESE visible
23 Apr ? 20:57:43 10° SSE 20:58:43 11° SE 20:59:42 10° ESE visible
23 Apr ? 22:29:55 10° WSW 22:31:44 37° WSW 22:31:44 37° WSW visible
24 Apr ? 21:10:53 10° SSW 21:13:14 26° SE 21:15:35 10° ENE visible
24 Apr ? 22:44:52 10° W 22:47:28 39° NNW 22:47:48 37° N visible
25 Apr ? 21:25:10 10° SW 21:27:52 65° SE 21:30:34 10° ENE visible
25 Apr ? 23:00:04 10° WNW 23:02:24 25° NNW 23:03:07 22° N visible
26 Apr ? 21:39:57 10° WSW 21:42:38 54° NNW 21:45:20 10° NE visible
26 Apr ? 23:15:18 10° WNW 23:17:24 19° N 23:17:54 18° N visible
27 Apr ? 21:55:02 10° W 21:57:31 30° NNW 21:59:59 10° NE visible
27 Apr ? 23:30:26 10° NW 23:32:23 18° N 23:32:23 18° N visible
28 Apr ? 22:10:16 10° WNW 22:12:29 21° NNW 22:14:41 10° NE visible
28 Apr ? 23:45:22 10° NW 23:46:42 18° NNW 23:46:42 18° NNW visible
